< < Back
Terminal Aerodrome Forecast


Current Version              Previous Versions:   1  2  3  4  5  6  7  8  9  

Terminal Aerodrome Forecast

527
FTUS42 KCAE 200800 AAA
TAFCAE
TAF AMD
KCAE 200831Z 2009/2106 VRB03KT P6SM SCT250
     FM201600 20005KT P6SM FEW035
     FM202300 VRB03KT P6SM SKC=

Latest METAR

742
SAUS80 KWBC 201300 RRA
MTRCAE
METAR KCAE 201256Z 00000KT 10SM CLR 09/07 A3015 RMK AO2 SLP208
T00940072


USA.gov is the U.S. government's official web portal to all federal, state and local government web resources and services.